FW7275 Weather Reports


Display with metric or nautical units.
time (UTC)temp
F
wind
direction
speed
MPH
gust
MPH
rain 1hr
in
rain 24hr
in
rain mn
in
humidity
%
barometer
mb
20200806104016 76 45 4.0 9.0 0.00 0.00 0.00 59
20200806103019 76 45 3.0 10.0 0.00 0.00 0.00 61
20200806102015 76 90 3.0 8.0 0.00 0.00 0.00 61
20200806101015 76 68 3.0 7.0 0.00 0.00 0.00 61
20200806100035 75 68 3.0 8.0 0.00 0.00 0.00 62
20200806095016 74 45 3.0 8.0 0.00 0.00 0.00 63
20200806094019 73 68 2.0 6.0 0.00 0.00 0.00 65
20200806093017 72 68 2.0 5.0 0.00 0.00 0.00 66
20200806092016 72 68 4.0 7.0 0.00 0.00 0.00 66
20200806091017 72 68 4.0 9.0 0.00 0.00 0.00 66
20200806090033 71 113 4.0 8.0 0.00 0.00 0.00 66
20200806085020 71 68 4.0 8.0 0.00 0.00 0.00 66
20200806084018 71 68 4.0 8.0 0.00 0.00 0.00 66
20200806083018 72 90 3.0 7.0 0.00 0.00 0.00 65
20200806082015 71 90 4.0 7.0 0.00 0.00 0.00 67
20200806081016 70 68 2.0 7.0 0.00 0.00 0.00 68
20200806080024 70 360 2.0 5.0 0.00 0.00 0.00 69
20200806075026 70 135 1.0 4.0 0.00 0.00 0.00 70
20200806074015 68 90 1.0 2.0 0.00 0.00 0.00 73
20200806073020 67 90 2.0 4.0 0.00 0.00 0.00 73
20200806072016 66 45 2.0 4.0 0.00 0.00 0.00 76
20200806071018 65 68 2.0 6.0 0.00 0.00 0.00 76
20200806070026 65 360 2.0 4.0 0.00 0.00 0.00 78
20200806065016 64 360 2.0 5.0 0.00 0.00 0.00 79
20200806064014 64 360 1.0 4.0 0.00 0.00 0.00 79
20200806063020 63 360 1.0 3.0 0.00 0.00 0.00 80
20200806062022 63 23 1.0 3.0 0.00 0.00 0.00 80
20200806061014 63 360 2.0 3.0 0.00 0.00 0.00 80
20200806055014 62 360 1.0 3.0 0.00 0.00 0.00 82
20200806025016 52 135 0.0 1.0 0.00 0.00 0.00 93
20200806024018 52 135 0.0 1.0 0.00 0.00 0.00 92
20200806001027 55 135 0.0 2.0 0.00 0.00 0.00 89
20200805223027 56 225 0.0 3.0 0.00 0.00 0.00 86
20200805215027 59 180 0.0 1.0 0.00 0.00 0.00 80
20200805214017 60 180 1.0 2.0 0.00 0.00 0.00 79
20200805213022 60 68 1.0 3.0 0.00 0.00 0.00 77
20200805212019 60 68 1.0 4.0 0.00 0.00 0.00 77
20200805211020 60 68 2.0 5.0 0.00 0.00 0.00 77
20200805210031 60 68 2.0 5.0 0.00 0.00 0.00 77
20200805205018 60 68 2.0 7.0 0.00 0.00 0.00 78
20200805201019 61 113 1.0 3.0 0.00 0.00 0.00 75
20200805195025 62 90 3.0 5.0 0.00 0.00 0.00 75
20200805194030 62 90 3.0 7.0 0.00 0.00 0.00 75
20200805192029 62 113 1.0 3.0 0.00 0.00 0.00 77
20200805191022 62 113 1.0 2.0 0.00 0.00 0.00 75
20200805185021 63 90 1.0 3.0 0.00 0.00 0.00 74
20200805184024 64 90 0.0 1.0 0.00 0.00 0.00 73
20200805183025 64 90 1.0 2.0 0.00 0.00 0.00 72
20200805182020 65 90 1.0 3.0 0.00 0.00 0.00 71
20200805181022 65 90 2.0 4.0 0.00 0.00 0.00 70
20200805175018 66 90 2.0 4.0 0.00 0.00 0.00 68
20200805174028 66 68 2.0 7.0 0.00 0.00 0.00 67
20200805173022 67 90 3.0 8.0 0.00 0.00 0.00 65
20200805172018 67 90 3.0 7.0 0.00 0.00 0.00 64
20200805171020 67 90 5.0 11.0 0.00 0.00 0.00 63
20200805165018 67 90 5.0 11.0 0.00 0.00 0.00 63
20200805164022 68 68 5.0 10.0 0.00 0.00 0.00 63
20200805163021 68 68 5.0 10.0 0.00 0.00 0.00 63
20200805162016 68 113 4.0 10.0 0.00 0.00 0.00 62
20200805161018 68 68 6.0 12.0 0.00 0.00 0.00 61
20200805155016 68 68 4.0 9.0 0.00 0.00 0.00 63
20200805154019 68 68 6.0 14.0 0.00 0.00 0.00 62
20200805153024 68 113 6.0 11.0 0.00 0.00 0.00 62
20200805152016 68 68 5.0 11.0 0.00 0.00 0.00 62
20200805151018 68 68 5.0 12.0 0.00 0.00 0.00 61
20200805150036 68 68 5.0 11.0 0.00 0.00 0.00 61
20200805145020 68 113 6.0 12.0 0.00 0.00 0.00 62
20200805144018 68 68 6.0 16.0 0.00 0.00 0.00 61
20200805143020 68 90 6.0 13.0 0.00 0.00 0.00 63
20200805142017 68 90 5.0 14.0 0.00 0.00 0.00 63
20200805141018 68 68 5.0 12.0 0.00 0.00 0.00 62
20200805135015 68 68 4.0 11.0 0.00 0.00 0.00 61
20200805134019 68 90 6.0 15.0 0.00 0.00 0.00 60
20200805133020 69 90 5.0 10.0 0.00 0.00 0.00 62
20200805132014 68 90 6.0 14.0 0.00 0.00 0.00 61
20200805131016 69 113 5.0 14.0 0.00 0.00 0.00 61
20200805125018 69 113 6.0 13.0 0.00 0.00 0.00 59
20200805124016 69 113 5.0 10.0 0.00 0.00 0.00 61
20200805123022 69 68 4.0 10.0 0.00 0.00 0.00 61
20200805122016 68 90 5.0 10.0 0.00 0.00 0.00 61
20200805121014 69 90 4.0 9.0 0.00 0.00 0.00 63
20200805120033 67 68 5.0 11.0 0.00 0.00 0.00 63
20200805115016 67 68 5.0 11.0 0.00 0.00 0.00 64
20200805114016 67 90 4.0 9.0 0.00 0.00 0.00 62
20200805113018 67 68 3.0 7.0 0.00 0.00 3.31 62
20200805112019 68 90 4.0 8.0 0.00 0.00 3.31 62
20200805111016 70 90 5.0 10.0 0.00 0.00 3.31 59
20200805105015 69 90 6.0 13.0 0.00 0.00 3.31 59